Location: Newark
(48.9886°N, 1.2358°E)
Time: 14:17:29
(UTC+00:00)

Vanguard 1 Rocket - Visible Passes

Search period start: 18 November 2019 00:00
Search period end: 28 November 2019 00:00
Orbit: 651 x 4226 km, 34.3° (Epoch: 17 November)

Date Brightness Start Highest point End Pass type
(mag) Time Alt. Az. Time Alt. Az. Time Alt. Az.
18 Nov 9.1 05:25:36 10° SW 05:28:52 18° S 05:32:58 10° SE visible
19 Nov 9.0 04:18:00 14° S 04:18:20 14° SSE 04:21:00 10° SE visible
20 Nov 9.1 05:28:38 10° SW 05:31:37 16° S 05:35:14 10° SE visible
21 Nov 9.0 04:21:06 14° S 04:21:06 14° S 04:23:43 10° SE visible
22 Nov 9.1 05:31:53 10° SW 05:34:22 14° S 05:37:15 10° SSE visible
23 Nov 9.0 04:24:11 14° S 04:24:11 14° S 04:26:15 10° SSE visible
24 Nov 9.2 05:35:40 10° SSW 05:37:08 11° S 05:38:43 10° S visible
25 Nov 9.1 04:27:16 12° S 04:27:16 12° S 04:28:33 10° SSE visible
